Flag for Brazil Weather past 2 weeks in Pelotas, Rio Grande do Sul, Brazil

Now
55 °F

Fog.


Feels Like: 54 °F
Forecast: 53 / 67 °F
Wind: 6 mph from Northeast

Location: Pelotas Airport

Current Time: Jul 22, 2014 at 6:55:15 AM

Latest Report: Jul 22, 2014 at 6:00 AM


Visibility: 2 mi

Pressure: 29.95 "Hg

Humidity: 100%

Dew point: 55 °F

Location of PelotasLocation

Historic Weather in Pelotas — Graph

°F

Pelotas temperature yesterday

Maximum temperature yesterday: 70 °F (at 2:00 PM)
Minimum temperature yesterday: 46 °F (at 3:00 AM)
Average temperature yesterday: 57 °F

Past Weeks' High & Low Weather Summary

 TemperatureHumidityPressure
High73 °F (Jul 14, 1:00 PM)100% (Jul 8, 8:00 PM)30.45 "Hg (Jul 8, 8:00 PM)
Low41 °F (Jul 7, 7:00 AM)43% (Jul 18, 4:00 PM)29.89 "Hg (Jul 17, 4:00 PM)
Average59 °F87%30.18 "Hg
* Reported Jul 7 5:00 AM — Jul 22 5:00 AM, Pelotas, Weather by CustomWeather, © 2014

Note: Actual official high and low records may vary slightly from our data, if they occured in-between our weather recording intervals... More about our weather records

Advertising

Pelotas weather history for previous 24 hours

 ConditionsComfort  
Time TempWeatherWind HumidityBarometerVisibility
5:00 AM
Jul 22
55 °FLow clouds.8 mph100%29.95 "HgN/A
4:00 AM57 °FLow clouds.3 mph94%29.98 "HgN/A
3:00 AM57 °FLow clouds.14 mph94%29.98 "HgN/A
2:00 AM57 °FLow clouds.8 mph100%30.01 "HgN/A
1:00 AM57 °FPassing clouds.13 mph100%30.04 "HgN/A
12:00 AM57 °FClear.12 mph94%30.04 "Hg10 mi
11:00 PM
Jul 21
57 °FClear.9 mph94%30.04 "Hg10 mi
10:00 PM55 °FClear.8 mph94%30.04 "Hg10 mi
9:00 PM57 °FClear.9 mph88%30.07 "Hg10 mi
8:00 PM57 °FClear.6 mph88%30.07 "Hg10 mi
7:00 PM59 °FClear.6 mph88%30.07 "Hg10 mi
6:00 PM61 °FClear.9 mph88%30.07 "Hg10 mi
5:00 PM66 °FClear.8 mph73%30.07 "Hg10 mi
4:00 PM68 °FSunny.9 mph69%30.04 "Hg10 mi
3:00 PM70 °FSunny.7 mph69%30.07 "Hg10 mi
2:00 PM70 °FSunny.7 mph60%30.07 "Hg10 mi
1:00 PM68 °FSunny.7 mph64%30.09 "Hg10 mi
12:00 PM66 °FSunny.7 mph68%30.12 "Hg10 mi
11:00 AM63 °FSunny.9 mph73%30.15 "Hg10 mi
10:00 AM61 °FSunny.5 mph72%30.15 "Hg10 mi
9:00 AM54 °FSunny.1 mph88%30.15 "Hg10 mi
8:00 AM46 °FSunny.1 mph93%30.15 "Hg10 mi
7:00 AM46 °FSunny.3 mph93%30.12 "Hg10 mi
6:00 AM46 °FClear.5 mph93%30.12 "Hg10 mi
Weather by CustomWeather, © 2014

See weather overviewHow to use our weather pages